Home > Weather > Bristol > Past weeks

Flag for U.S.A. Weather for the Past 2 Weeks in Bristol, Tennessee, U.S.A.

Now
29 °F

Clear.


Feels Like: 29 °F
Forecast: 24 / 49 °F
Wind: No wind

Location: Abingdon-Southwest Abingdon

Current Time: Feb 7, 2016 at 1:30:35 AM

Latest Report: Feb 7, 2016 at 12:55 AM


Visibility: 7 mi

Pressure: 30.20 "Hg (28.32 "Hg at 510m altitude)

Humidity: 70%

Dew point: 20 °F

Location of BristolLocation

Historic Weather in Bristol — Graph

°F

Bristol Temperature Yesterday

Maximum temperature yesterday: 43 °F (at 1:15 PM)
Minimum temperature yesterday: 25 °F (at 3:15 AM)
Average temperature yesterday: 33 °F

High & Low Weather Summary for the Past Weeks

 TemperatureHumidityPressure
High67 °F (Feb 2, 2:15 PM)97% (Jan 26, 10:15 PM)30.39 "Hg (Jan 26, 10:15 PM)
Low20 °F (Jan 23, 8:35 AM)14% (Jan 30, 2:55 PM)29.63 "Hg (Jan 23, 12:40 AM)
Average39 °F66%30.04 "Hg
* Reported Jan 23 12:15 AM — Feb 7 12:15 AM, Bristol, Weather by CustomWeather, © 2016

Note: Actual official high and low records may vary slightly from our data, if they occured in-between our weather recording intervals... More about our weather records

Advertising

Bristol Weather History for the Previous 24 Hours

 ConditionsComfort  
Time TempWeatherWind HumidityBarometerVisibility
12:15 AM
Sun, Feb 7
29 °FClear.No wind71%30.21 "Hg10 mi
11:55 PM
Sat, Feb 6
31 °FClear.No wind66%30.22 "Hg10 mi
11:35 PM31 °FClear.No wind67%30.22 "Hg10 mi
11:15 PM31 °FClear.No wind65%30.23 "Hg7 mi
10:35 PM32 °FClear.No wind66%30.23 "Hg10 mi
10:15 PM32 °FClear.No wind64%30.24 "Hg10 mi
9:55 PM33 °FClear.No wind62%30.24 "Hg10 mi
9:15 PM33 °FClear.No wind63%30.24 "Hg10 mi
8:35 PM34 °FClear.No wind56%30.25 "Hg10 mi
8:15 PM35 °FPassing clouds.No wind53%30.25 "Hg10 mi
7:55 PM36 °FPassing clouds.No wind49%30.25 "Hg10 mi
7:15 PM37 °FPassing clouds.No wind44%30.26 "Hg10 mi
6:55 PM39 °FOvercast.No wind37%30.26 "Hg10 mi
6:15 PM40 °FOvercast.3 mph32%30.26 "Hg10 mi
5:55 PM40 °FOvercast.5 mph32%30.27 "Hg10 mi
5:35 PM41 °FBroken clouds.3 mph30%30.26 "Hg10 mi
5:20 PM42 °FScattered clouds.7 mph28%30.26 "Hg10 mi
4:55 PM43 °FPartly sunny.7 mph26%30.25 "Hg10 mi
4:15 PM42 °FOvercast.5 mph27%30.26 "Hg10 mi
4:00 PM43 °FOvercast.9 mph26%30.26 "Hg10 mi
3:35 PM43 °FPartly sunny.8 mph27%30.26 "Hg10 mi
3:20 PM43 °FPartly sunny.6 mph28%30.26 "Hg10 mi
2:55 PM42 °FOvercast.5 mph27%30.26 "Hg10 mi
2:35 PM42 °FPartly sunny.No wind25%30.26 "Hg10 mi
2:15 PM42 °FSunny.6 mph26%30.27 "Hg10 mi
1:55 PM42 °FSunny.5 mph25%30.28 "Hg10 mi
1:35 PM42 °FSunny.3 mph26%30.29 "Hg10 mi
1:15 PM43 °FSunny.6 mph26%30.30 "Hg10 mi
12:55 PM42 °FSunny.5 mph26%30.31 "Hg10 mi
12:35 PM41 °FSunny.5 mph28%30.33 "Hg10 mi
12:15 PM41 °FSunny.6 mph33%30.34 "Hg10 mi
11:55 AM39 °FSunny.3 mph35%30.35 "Hg10 mi
11:35 AM39 °FSunny.No wind35%30.35 "Hg10 mi
11:15 AM38 °FSunny.No wind36%30.36 "Hg10 mi
10:55 AM37 °FSunny.No wind39%30.37 "Hg10 mi
10:35 AM36 °FSunny.No wind47%30.37 "Hg10 mi
10:15 AM33 °FSunny.No wind55%30.37 "Hg10 mi
9:55 AM32 °FSunny.No wind53%30.37 "Hg10 mi
9:35 AM32 °FSunny.3 mph54%30.37 "Hg10 mi
9:15 AM29 °FSunny.No wind62%30.37 "Hg10 mi
8:55 AM28 °FSunny.5 mph66%30.37 "Hg10 mi
8:40 AM28 °FSunny.3 mph61%30.36 "Hg10 mi
8:15 AM27 °FSunny.3 mph64%30.36 "Hg10 mi
7:55 AM26 °FSunny.No wind68%30.36 "Hg10 mi
7:35 AM25 °FSunny.3 mph70%30.36 "Hg10 mi
7:20 AM26 °FClear.3 mph68%30.36 "Hg10 mi
6:55 AM28 °FClear.No wind60%30.35 "Hg10 mi
6:35 AM28 °FClear.No wind59%30.35 "Hg10 mi
6:15 AM28 °FClear.No wind60%30.35 "Hg10 mi
5:55 AM28 °FClear.No wind62%30.34 "Hg10 mi
5:15 AM27 °FClear.No wind63%30.35 "Hg10 mi
4:55 AM27 °FClear.No wind62%30.35 "Hg10 mi
4:35 AM27 °FClear.No wind64%30.34 "Hg10 mi
4:15 AM26 °FClear.5 mph69%30.34 "Hg10 mi
3:55 AM26 °FClear.No wind65%30.34 "Hg10 mi
3:35 AM26 °FClear.No wind67%30.34 "Hg10 mi
3:15 AM25 °FClear.No wind71%30.35 "Hg10 mi
2:55 AM26 °FClear.No wind66%30.35 "Hg10 mi
2:35 AM26 °FClear.No wind66%30.35 "Hg10 mi
2:15 AM26 °FClear.No wind67%30.35 "Hg10 mi
1:55 AM26 °FClear.3 mph66%30.35 "Hg10 mi
1:35 AM25 °FClear.No wind70%30.35 "Hg10 mi
1:15 AM26 °FClear.No wind64%30.35 "Hg10 mi
Weather by CustomWeather, © 2016

See weather overviewHow to use our weather pages